GW3746 Weather Reports


Display with metric or nautical units.
time (UTC)temp
F
wind
direction
speed
MPH
gust
MPH
rain 1hr
in
rain 24hr
in
rain mn
in
humidity
%
barometer
mb
20260504150120 71 273 3.0 7.0 0.00 0.00 0.00 39 992.6
20260504141049 62 323 0.0 2.0 0.00 0.00 0.00 55 992.8
20260504140545 61 315 2.0 3.0 0.00 0.00 0.00 55 992.8
20260504130510 53 349 4.0 4.0 0.00 0.00 0.00 63 992.7
20260504110352 45 318 2.0 4.0 0.00 0.00 0.00 74 992.6
20260504100309 49 243 0.0 1.0 0.00 0.00 0.00 67 992.0
20260504081702 57 162 0.0 2.0 0.00 0.00 0.00 50 992.3
20260504081158 57 162 0.0 0.0 0.00 0.00 0.00 50 992.4
20260504080655 57 181 1.0 1.0 0.00 0.00 0.00 49 992.3
20260504080152 57 159 0.0 2.0 0.00 0.00 0.00 49 992.4
20260504070119 58 160 0.0 4.0 0.00 0.00 0.00 47 993.6
20260504050509 57 169 0.0 0.0 0.00 0.00 0.00 53 995.4
20260504050005 57 171 0.0 0.0 0.00 0.00 0.00 52 995.3
20260504045502 56 173 0.0 0.0 0.00 0.00 0.00 53 995.8
20260504044957 56 165 1.0 2.0 0.00 0.00 0.00 53 995.8
20260504044455 57 168 1.0 1.0 0.00 0.00 0.00 53 995.6
20260504043951 57 168 1.0 1.0 0.00 0.00 0.00 53 995.6
20260504043448 57 170 0.0 1.0 0.00 0.00 0.00 53 995.6
20260504042946 57 173 0.0 0.0 0.00 0.00 0.00 52 995.6
20260504042442 58 172 0.0 1.0 0.00 0.00 0.00 51 995.9
20260504041939 58 167 0.0 0.0 0.00 0.00 0.00 52 996.0
20260504041435 58 166 0.0 1.0 0.00 0.00 0.00 51 996.0
20260504040931 58 145 2.0 2.0 0.00 0.00 0.00 51 996.0
20260504040429 58 166 0.0 0.0 0.00 0.00 0.00 51 996.0
20260504035925 58 169 0.0 2.0 0.00 0.00 0.00 51 996.0
20260504035422 59 165 0.0 2.0 0.00 0.00 0.00 51 996.0
20260504034919 59 159 0.0 3.0 0.00 0.00 0.00 50 995.9
20260504034417 59 166 0.0 0.0 0.00 0.00 0.00 51 995.8
20260504033914 59 140 0.0 0.0 0.00 0.00 0.00 50 996.0
20260504033412 59 165 0.0 0.0 0.00 0.00 0.00 49 996.0
20260504032909 60 154 0.0 2.0 0.00 0.00 0.00 48 995.8
20260504032406 60 140 0.0 3.0 0.00 0.00 0.00 47 995.9
20260504031902 60 159 0.0 2.0 0.00 0.00 0.00 48 996.1
20260504031359 60 171 0.0 0.0 0.00 0.00 0.00 48 996.1
20260504030855 60 136 0.0 0.0 0.00 0.00 0.00 48 996.2
20260504030353 60 138 0.0 0.0 0.00 0.00 0.00 47 996.1
20260504025848 61 155 0.0 0.0 0.00 0.00 0.00 47 996.1
20260504025346 60 148 1.0 1.0 0.00 0.00 0.00 48 996.2
20260504024842 60 170 0.0 0.0 0.00 0.00 0.00 49 996.0
20260504024339 60 177 0.0 0.0 0.00 0.00 0.00 49 996.2
20260504023836 61 177 0.0 0.0 0.00 0.00 0.00 48 996.1
20260504023333 61 165 0.0 0.0 0.00 0.00 0.00 48 996.1
20260504022828 61 165 0.0 0.0 0.00 0.00 0.00 49 996.4
20260504022325 61 145 0.0 0.0 0.00 0.00 0.00 48 996.3
20260504021822 61 144 0.0 0.0 0.00 0.00 0.00 48 996.4
20260504021320 62 144 0.0 0.0 0.00 0.00 0.00 47 996.3
20260504020817 62 145 0.0 0.0 0.00 0.00 0.00 47 996.3
20260504020313 62 140 0.0 0.0 0.00 0.00 0.00 47 996.5
20260504015809 63 145 0.0 0.0 0.00 0.00 0.00 45 996.1
20260504015305 64 145 0.0 0.0 0.00 0.00 0.00 44 996.3
20260504014802 65 145 0.0 0.0 0.00 0.00 0.00 42 996.1
20260504014258 66 125 0.0 0.0 0.00 0.00 0.00 41 996.1
20260504013756 66 143 0.0 0.0 0.00 0.00 0.00 41 996.2
20260504013253 66 79 0.0 0.0 0.00 0.00 0.00 41 996.2
20260504012749 67 79 0.0 0.0 0.00 0.00 0.00 39 996.2
20260504012248 68 69 0.0 0.0 0.00 0.00 0.00 39 996.3
20260504011744 69 84 0.0 0.0 0.00 0.00 0.00 38 996.3
20260504011241 69 83 0.0 0.0 0.00 0.00 0.00 37 996.3
20260504010737 69 148 0.0 0.0 0.00 0.00 0.00 38 996.3
20260504010233 69 153 0.0 0.0 0.00 0.00 0.00 37 996.3
20260504005730 69 166 0.0 0.0 0.00 0.00 0.00 37 996.2
20260504005227 70 145 0.0 0.0 0.00 0.00 0.00 36 996.5
20260504004724 70 165 0.0 0.0 0.00 0.00 0.00 35 996.4
20260504004221 71 174 0.0 0.0 0.00 0.00 0.00 35 996.4
20260504003718 71 83 0.0 0.0 0.00 0.00 0.00 35 996.9
20260504003215 71 154 0.0 0.0 0.00 0.00 0.00 36 996.8
20260504002712 72 16 0.0 0.0 0.00 0.00 0.00 34 996.7
20260504002209 72 183 0.0 0.0 0.00 0.00 0.00 35 996.8
20260504001707 72 89 0.0 2.0 0.00 0.00 0.00 32 996.9
20260504001203 72 328 0.0 0.0 0.00 0.00 0.00 32 996.9
20260504000700 73 87 0.0 0.0 0.00 0.00 0.00 32 997.1
20260504000157 73 318 0.0 0.0 0.00 0.00 0.00 31 997.1
20260503235655 73 52 0.0 4.0 0.00 0.00 0.00 31 997.1
20260503235151 74 353 0.0 1.0 0.00 0.00 0.00 32 997.1
20260503234650 74 207 0.0 2.0 0.00 0.00 0.00 35 997.4
20260503234148 74 11 3.0 4.0 0.00 0.00 0.00 31 997.2
20260503233644 74 82 1.0 3.0 0.00 0.00 0.00 31 997.4
20260503233140 75 332 0.0 1.0 0.00 0.00 0.00 30 997.4
20260503232637 74 97 0.0 0.0 0.00 0.00 0.00 30 997.5
20260503232134 74 57 0.0 0.0 0.00 0.00 0.00 35 997.4
20260503231632 73 34 0.0 0.0 0.00 0.00 0.00 33 997.6
20260503231128 73 42 0.0 0.0 0.00 0.00 0.00 32 997.5
20260503230625 74 1 1.0 2.0 0.00 0.00 0.00 31 997.7
20260503230122 74 73 0.0 0.0 0.00 0.00 0.00 33 997.6
20260503225620 74 20 0.0 0.0 0.00 0.00 0.00 30 997.6
20260503225119 74 8 0.0 0.0 0.00 0.00 0.00 30 997.6
20260503224617 74 347 0.0 0.0 0.00 0.00 0.00 30 997.6
20260503224115 74 22 0.0 0.0 0.00 0.00 0.00 31 997.6
20260503223613 75 354 0.0 4.0 0.00 0.00 0.00 31 997.7
20260503223108 75 359 2.0 2.0 0.00 0.00 0.00 30 997.7
20260503222606 75 154 0.0 0.0 0.00 0.00 0.00 30 997.7
20260503222103 77 142 1.0 3.0 0.00 0.00 0.00 30 997.8
20260503221601 76 318 0.0 0.0 0.00 0.00 0.00 28 997.8
20260503221059 76 250 0.0 0.0 0.00 0.00 0.00 30 997.9
20260503220555 75 298 0.0 0.0 0.00 0.00 0.00 28 998.0
20260503220052 76 192 0.0 2.0 0.00 0.00 0.00 33 998.0
20260503215549 77 149 0.0 0.0 0.00 0.00 0.00 31 998.2
20260503215046 76 51 1.0 3.0 0.00 0.00 0.00 29 998.2
20260503214544 76 181 0.0 0.0 0.00 0.00 0.00 30 998.3
20260503214040 77 126 0.0 0.0 0.00 0.00 0.00 30 998.3
20260503213539 75 107 0.0 0.0 0.00 0.00 0.00 28 998.2
20260503213035 77 8 2.0 6.0 0.00 0.00 0.00 31 998.2
20260503212532 76 289 0.0 3.0 0.00 0.00 0.00 28 998.2
20260503212030 76 83 0.0 3.0 0.00 0.00 0.00 29 998.3
20260503211527 76 69 0.0 0.0 0.00 0.00 0.00 31 998.5
20260503211022 76 342 1.0 4.0 0.00 0.00 0.00 30 998.6
20260503210519 76 351 0.0 0.0 0.00 0.00 0.00 31 998.5
20260503210015 77 76 0.0 1.0 0.00 0.00 0.00 29 998.7
20260503205512 76 351 0.0 2.0 0.00 0.00 0.00 28 998.7
20260503205008 76 78 0.0 2.0 0.00 0.00 0.00 30 998.8
20260503204505 76 134 0.0 2.0 0.00 0.00 0.00 29 998.7
20260503204002 76 104 1.0 6.0 0.00 0.00 0.00 29 998.8
20260503203459 75 16 5.0 7.0 0.00 0.00 0.00 31 999.0
20260503202956 75 14 0.0 6.0 0.00 0.00 0.00 34 999.0
20260503202454 75 325 1.0 4.0 0.00 0.00 0.00 33 999.0
20260503201952 75 10 2.0 6.0 0.00 0.00 0.00 31 999.1
20260503201449 75 79 1.0 4.0 0.00 0.00 0.00 32 999.1
20260503200947 75 51 2.0 8.0 0.00 0.00 0.00 31 999.3
20260503200444 75 45 0.0 7.0 0.00 0.00 0.00 33 999.3
20260503195940 75 30 3.0 4.0 0.00 0.00 0.00 31 999.3
20260503195438 75 326 0.0 2.0 0.00 0.00 0.00 30 999.5
20260503194934 75 33 2.0 7.0 0.00 0.00 0.00 31 999.6
20260503194431 74 40 0.0 7.0 0.00 0.00 0.00 32 999.4
20260503193926 74 0 5.0 6.0 0.00 0.00 0.00 29 999.6
20260503193422 75 24 2.0 8.0 0.00 0.00 0.00 31 999.6
20260503192918 75 59 0.0 3.0 0.00 0.00 0.00 35 999.5
20260503192414 75 13 2.0 6.0 0.00 0.00 0.00 33 999.8
20260503191909 74 174 0.0 2.0 0.00 0.00 0.00 31 999.9
20260503191408 73 316 0.0 8.0 0.00 0.00 0.00 31 1000.0
20260503190903 74 348 5.0 7.0 0.00 0.00 0.00 32 1000.0
20260503190401 76 2 4.0 4.0 0.00 0.00 0.00 28 1000.0
20260503185857 73 3 0.0 1.0 0.00 0.00 0.00 33 1000.0
20260503185354 74 39 4.0 7.0 0.00 0.00 0.00 30 1000.1
20260503184854 73 316 3.0 3.0 0.00 0.00 0.00 30 1000.1
20260503184350 74 55 4.0 6.0 0.00 0.00 0.00 32 1000.0
20260503183846 73 13 1.0 2.0 0.00 0.00 0.00 33 1000.1
20260503183343 73 88 0.0 2.0 0.00 0.00 0.00 30 1000.2
20260503182840 73 2 6.0 8.0 0.00 0.00 0.00 31 1000.2
20260503182340 73 29 1.0 4.0 0.00 0.00 0.00 32 1000.6
20260503181836 73 62 0.0 6.0 0.00 0.00 0.00 34 1000.6
20260503181333 73 184 0.0 6.0 0.00 0.00 0.00 39 1000.6
20260503180830 72 83 2.0 4.0 0.00 0.00 0.00 33 1000.6
20260503180328 73 347 3.0 9.0 0.00 0.00 0.00 32 1000.6
20260503175824 72 23 3.0 7.0 0.00 0.00 0.00 33 1001.0
20260503175322 71 34 6.0 8.0 0.00 0.00 0.00 32 1000.8
20260503174817 71 7 1.0 1.0 0.00 0.00 0.00 32 1000.9
20260503174316 72 25 1.0 6.0 0.00 0.00 0.00 31 1001.0
20260503173811 74 31 1.0 4.0 0.00 0.00 0.00 36 1001.0
20260503173308 72 159 0.0 0.0 0.00 0.00 0.00 39 1001.2
20260503172805 71 41 3.0 6.0 0.00 0.00 0.00 33 1001.2
20260503172305 71 359 2.0 6.0 0.00 0.00 0.00 35 1001.2
20260503171758 71 5 2.0 6.0 0.00 0.00 0.00 33 1001.3
20260503171255 71 41 0.0 8.0 0.00 0.00 0.00 36 1001.3
20260503170752 70 74 0.0 6.0 0.00 0.00 0.00 39 1001.4
20260503170249 71 346 4.0 10.0 0.00 0.00 0.00 34 1001.4
20260503160211 68 14 4.0 8.0 0.00 0.00 0.00 36 1001.7
20260503150641 63 49 2.0 7.0 0.00 0.00 0.00 46 1002.3